Regional Weather Roundup
Issued by NWS Lake Charles, LA

Home | Current Version | Previous Version | Text Only | Print | Product List | Glossary On
Versions: 1 2 3 4 5 6 7 8 9 10 11 12 13 14 15 16 17 18 19 20 21 22 23 24 25 26 27 28 29 30 31 32 33 34 35 36 37 38 39 40 41 42 43 44 45 46 47 48 49 50
000
ASUS44 KLCH 291410
RWRLCH
RWRLCH
REGIONAL WEATHER ROUNDUP
NATIONAL WEATHER SERVICE LAKE CHARLES LA
900 AM CDT SUN MAR 29 2015

Note: "fair" indicates few or no clouds below 12,000 feet with no
significant weather and/or obstructions to visibility.


ACROSS SOUTHEAST TEXAS

CITY           SKY/WX    TMP DP  RH WIND       PRES   REMARKS
BEAUMONT       SUNNY     69  65  86 S10       30.19R
BEAUMONT CITY    N/A     67  64  93 S8        30.20R
ORANGE         SUNNY     68  62  81 S10       30.21R
JASPER         CLOUDY    64  63  97 SE3       30.21S
$$

ACROSS CENTRAL LOUISIANA

CITY           SKY/WX    TMP DP  RH WIND       PRES   REMARKS
LEESVILLE      MOSUNNY   59  58  97 SE7       30.20S
FULLERTON        N/A     65  59  81 VRB3      30.19F
ALEXANDRIA INT CLOUDY    58  56  93 SE12      30.21R FOG
ESLER FIELD    CLOUDY    56  54  93 SE6       30.24R
DERIDDER       PTSUNNY   59  58  96 CALM      30.23R
OAKDALE        CLOUDY    61  60  96 SE6       30.24R FOG
OPELOUSAS      CLOUDY    58  57  95 SE7       30.24S
$$

ACROSS SOUTHWEST AND SOUTH CENTRAL LOUISIANA

CITY           SKY/WX    TMP DP  RH WIND       PRES   REMARKS
SULPHUR        SUNNY     69  66  89 S12       30.21S
LAKE CHARLES   SUNNY     66  64  93 S8        30.21R
CHENNAULT INT  MOSUNNY   64  64 100 S8          N/A
CAMERON PHI    NOT AVBL
DEQUINCY         N/A     61  61 100 SE3       30.21R
JENNINGS       PTSUNNY   61  61 100 SE6       30.23R
LAFAYETTE      MOSUNNY   61  59  93 SE5       30.25R
NEW IBERIA     SUNNY     65  61  87 SE9       30.25R
ABBEVILLE        N/A     62  61  97 SE6       30.25R
PATTERSON      SUNNY     63  57  82 E6        30.26R
SALT POINT       N/A     66  62  87 SE8       30.25R
$$

SELECTED SITES ACROSS THE REGION

CITY           SKY/WX    TMP DP  RH WIND       PRES   REMARKS
HOUSTON BUSH   PTSUNNY   66  63  90 S6        30.16R
HOUSTON HOBBY  PTSUNNY   66  64  93 S6        30.17R
GALVESTON      PTSUNNY   68  66  93 SE13      30.19R
COLLEGE STAT   CLOUDY    62  59  90 S7        30.13R
CONROE         CLOUDY    63  60  90 S8        30.17R
HUNTSVILLE     MOSUNNY   65  59  81 S14G22    30.14R
LUFKIN         CLOUDY    65  60  84 S7        30.15S
SHREVEPORT     CLOUDY    58  52  80 SE9       30.16R
MONROE         CLOUDY    52  43  71 S9        30.24R
NATCHEZ MS     MOSUNNY   54  39  58 SE14      30.27R
BATON ROUGE    SUNNY     55  47  74 E10       30.28R
N.O. INTL ARPT MOSUNNY   64  52  64 SE14      30.28R
SLIDELL        SUNNY     57  48  72 VRB7      30.30R
$$

MARINE REPORTS

STATION/POSITION TIME  TEMP    WIND        PRES    VSBY  WAVE
                       AIR SEA DIR/SP/G                  HT/PER
                 (UTC) (F)     (DEG/KT/KT) (MB)    (MI)  (FT/S)
BUOY 30 S HIGH I 1350   66 66  130/  8/ 10 1022.0R         2/ 5
SEA RIM ST PARK  1400   67     160/  7/  9 1023.2R
PORT ARTHUR      1306      67  180/  5/  8 1022.4R
SABINE PASS N    1300   67 67  180/  6/  9 1022.6R
TEXAS POINT      NOT AVBL
CALCASIEU PASS   1300   67 66  190/ 11/ 13   N/A
LK CHARLES BEACH 1300   62 67              1022.8R
MARSH ISLAND     NOT AVBL
FRESH WATER LOCK 1300   66 66  130/  5/  8 1023.3R
AMERADA PASS     1300   61 57  110/  5/  7 1024.1R
$$


USA.gov is the U.S. government's official web portal to all federal, state and local government web resources and services.